Regional Weather Roundup
Issued by NWS

Home | Current Version | Previous Version | Text Only | Print | Product List | Glossary On
Versions: 1 2 3 4 5 6 7 8 9 10 11 12 13 14 15 16 17 18 19 20 21 22 23 24 25 26 27 28 29 30 31 32 33 34 35 36 37 38 39 40 41 42 43 44 45 46 47 48 49 50
000
ASUS45 KBOU 211010
RWRCO

WEATHER ROUNDUP FOR COLORADO
NATIONAL WEATHER SERVICE DENVER/BOULDER CO
400 AM MDT SUN APR 21 2019

NOTE: "FAIR" INDICATES FEW OR NO CLOUDS BELOW 12000 FEET WITH NO
SIGNIFICANT WEATHER AND/OR OBSTRUCTIONS TO VISIBILITY.

COZ001>005-013-030-031-211100-
...NORTHWEST COLORADO...

CITY           SKY/WX    TMP DP  RH WIND       PRES   REMARKS
CRAIG          FAIR      35  28  75 CALM      29.86S
HAYDEN         FAIR      41  29  62 S3        29.88F
MEEKER         FAIR      38  30  73 CALM      29.86S
RANGELY        CLOUDY    43  35  73 CALM      29.82S
RABBIT EARS PA NOT AVBL
STEAMBOAT SPGS FAIR      40  30  67 CALM      29.89S
WALDEN         CLOUDY    37  27  65 CALM      29.95S
$$

COZ006>008-011-211100-
...WEST CENTRAL VALLEYS...

CITY           SKY/WX    TMP DP  RH WIND       PRES   REMARKS
GRAND JUNCTION FAIR      50  34  54 E15       29.81R
MONTROSE       CLOUDY    45  29  53 VRB6      29.90R
EAGLE          FAIR      36  28  73 CALM      29.94S
RIFLE          FAIR      41  32  70 CALM      29.85F
DELTA          MOCLDY    49  34  57 E5        29.88R
NUCLA          CLOUDY    54  28  37 SW6       29.92S
$$

COZ017>023-064>068-211100-
...SOUTHWEST COLORADO...

CITY           SKY/WX    TMP DP  RH WIND       PRES   REMARKS
DURANGO        FAIR      38  27  64 CALM      29.96S
CORTEZ         CLOUDY    44  33  65 NE3       29.91S
PAGOSA SPRINGS FAIR      36  33  86 CALM      30.00F
TELLURIDE      CLOUDY    39  32  75 SE7       30.06R
WOLF CREEK PAS FAIR      28  23  80 S18G26    30.16F WCI  16
$$

COZ009-010-012-014-032>034-037-058>063-211100-
...CENTRAL COLORADO...

CITY           SKY/WX    TMP DP  RH WIND       PRES   REMARKS
ASPEN          FAIR      36  27  69 S6        29.93S
BUENA VISTA    FAIR      34  25  70 S3        29.96S
COPPER MTN     MOCLDY    34  23  64 MISG      30.10S
BERTHOUD PASS  CLOUDY    27  16  63 NW23      30.08F WCI  12
COTTONWOOD PAS FAIR      41  23  48 SW3       30.02R
GUNNISON       FAIR      29  28  96 CALM      30.00F
GRANBY         CLOUDY    33  30  88 CALM      29.97F
KREMMLING      FAIR      37  32  81 SE3       29.94F
LEADVILLE      FAIR      29  22  75 VRB3      30.01S
MONARCH PASS   FAIR      30  21  69 W25       30.19F WCI  16
SALIDA         FAIR      42  28  58 CALM      30.02S
SUNLIGHT       FAIR      30  23  74 SW12G20   30.07F WCI  21
WILKERSON PASS FAIR      32  21  64 W7        30.08S WCI  26
$$

COZ069>075-211100-
...SAN LUIS VALLEY/SANGRE DE CRISTO MOUNTAINS...

CITY           SKY/WX    TMP DP  RH WIND       PRES   REMARKS
ALAMOSA        FAIR      34  26  72 CALM      29.98R
DEL NORTE      FAIR      32  25  76 CALM      30.00S
LA VETA PASS   NOT AVBL
SAGUACHE       FAIR      32  27  80 CALM      30.00S
$$

COZ035-036-038>040-211100-
...NORTHERN COLORADO FRONT RANGE...

CITY           SKY/WX    TMP DP  RH WIND       PRES   REMARKS
DENVER INTL AP MOCLDY    55  32  41 W6        29.78R
AURORA         MOCLDY    52  31  44 S7        29.79R
FRONT RANGE AP MOCLDY    54  34  46 W12       29.78S
ERIE MUNI ARPT CLOUDY    54  33  45 CALM      29.82R
BOULDER MUN AP CLOUDY    63  28  27 NW10G20   29.76S
CENTENNIAL     MOCLDY    50  29  44 SW9       29.79S
BROOMFIELD     FAIR      61  28  29 NW16G26   29.79R
FORT COLLINS   CLOUDY    61  33  35 NW13      29.78R
LONGMONT       CLOUDY    62  29  29 N8        29.79R
$$

COZ041-046-047-076>085-087-088-211100-
...PIKES PEAK/PALMER DIVIDE AND SOUTHERN FOOTHILLS...

CITY           SKY/WX    TMP DP  RH WIND       PRES   REMARKS
COLO. SPRINGS  FAIR      58  23  26 NW16G23   29.81F
A. F. ACADEMY  FAIR      54  23  30 W18       29.80F
SCHRIEVER AFB  NOT AVBL
CHEYENNE MTN   FAIR      57  17  21 CALM      29.79S
ELLICOTT         N/A    N/A N/A N/A N8        29.79F
FALCON         FAIR      51  23  33 NW16G24   29.85S
FORT CARSON    FAIR      50  26  39 CALM      29.80F
LIMON          FAIR      47  33  58 W9        29.75R
MONUMENT HILL  FAIR      37  28  70 CALM      29.87S
CANON CITY     NOT AVBL
WALSENBURG     NOT AVBL
TRINIDAD       FAIR      47  26  44 W7        29.85R
$$

COZ042>045-048>051-090-091-211100-
...NORTHEAST COLORADO...

CITY           SKY/WX    TMP DP  RH WIND       PRES   REMARKS
GREELEY ARPT   MOCLDY    64  34  32 NW22G30   29.78R
AKRON          CLOUDY    59  33  37 SW7G22    29.71R
BURLINGTON     FAIR      53  30  41 W12       29.65S
WRAY           FAIR      46  32  57 SW5       29.63S
YUMA           NOT AVBL
STERLING       FAIR      54  36  50 NW7       29.67R
HOLYOKE        FAIR      59  45  58 N13       29.62F
FORT MORGAN    NOT AVBL
$$

COZ086-089-092>099-211100-
...SOUTHEAST COLORADO...

CITY           SKY/WX    TMP DP  RH WIND       PRES   REMARKS
PUEBLO         FAIR      52  30  43 NW6       29.74F
LA JUNTA       FAIR      57  31  37 W16       29.71S
LAMAR          FAIR      49  34  56 SW8       29.67S
SPRINGFIELD      N/A     46  32  58 SW10      29.74R
$$



USA.gov is the U.S. government's official web portal to all federal, state and local government web resources and services.